This is the latest recevied weather packets stored in our database for station/object CA3EVY-3. If no packets are shown the sender has not sent any weather packets the latest 10 day(s).
| Time | Temp. | Humidity | Pressure | Rain* | Wind** | Luminosity | Snow |
|---|---|---|---|---|---|---|---|
| 1777998606 | 19.44° C | 39% | 915 hPa | - | - | - | - |
| 1777995005 | 17.78° C | 43% | 915.2 hPa | - | - | - | - |
| 1777994104 | 17.78° C | 43% | 915.5 hPa | - | - | - | - |
| 1777991404 | 17.22° C | 43% | 915.9 hPa | - | - | - | - |
| 1777990503 | 16.67° C | 43% | 915.8 hPa | - | - | - | - |
| 1777987804 | 15.56° C | 44% | 916.4 hPa | - | - | - | - |
| 1777986904 | 15.56° C | 44% | 916.3 hPa | - | - | - | - |
| 1777984204 | 15° C | 43% | 917 hPa | - | - | - | - |
| 1777979703 | 14.44° C | 45% | 917.2 hPa | - | - | - | - |
| 1777977004 | 14.44° C | 46% | 916.8 hPa | - | - | - | - |
| 1777976103 | 14.44° C | 46% | 916.7 hPa | - | - | - | - |
| 1777975203 | 14.44° C | 45% | 916.5 hPa | - | - | - | - |
| 1777973404 | 14.44° C | 44% | 916 hPa | - | - | - | - |
| 1777972503 | 14.44° C | 44% | 916 hPa | - | - | - | - |
| 1777971604 | 14.44° C | 44% | 915.8 hPa | - | - | - | - |
| 1777969804 | 15° C | 44% | 915.5 hPa | - | - | - | - |
| 1777968903 | 15° C | 44% | 915.4 hPa | - | - | - | - |
| 1777968004 | 15° C | 44% | 915.5 hPa | - | - | - | - |
| 1777967104 | 15° C | 44% | 915.4 hPa | - | - | - | - |
| 1777966203 | 15° C | 44% | 915.3 hPa | - | - | - | - |
| 1777965304 | 15° C | 44% | 915.6 hPa | - | - | - | - |
| 1777964404 | 15° C | 45% | 915.6 hPa | - | - | - | - |
| 1777962604 | 15.56° C | 45% | 916.4 hPa | - | - | - | - |
| 1777961704 | 15.56° C | 45% | 916.6 hPa | - | - | - | - |
| 1777960804 | 15.56° C | 44% | 916.8 hPa | - | - | - | - |
* Rain since midnight (hover to see other rain measurements)
** Current wind speed in m/s (hover to see current wind gust speed)